CPQ855 KSAT-KGLS

Flight info

Callsign CPQ855
Flight time 0h 43m
Altitude 21000
Route SNIDR2 WEMAR BELLR TSHRT2
Aircraft DH8D/M-SDE2E3FGRUY/L

Departure

Time 2026-04-26 18:33
Airport San Antonio International Airport (KSAT)

Arrival

Time 2026-04-26 19:17
Airport Scholes International At Galveston Airport (KGLS)
Time Latitude Longitude Altitude Speed Heading
2026-04-26 18:09 29.52380 -98.47339 798 ft 0 kts 312°
2026-04-26 18:23 29.52380 -98.47340 798 ft 0 kts 312°
2026-04-26 18:23 29.52375 -98.47369 798 ft 6 kts 202°
2026-04-26 18:24 29.52348 -98.47371 798 ft 6 kts 178°
2026-04-26 18:24 29.52317 -98.47314 797 ft 2 kts 86°
2026-04-26 18:24 29.52317 -98.47313 797 ft 0 kts 86°
2026-04-26 18:25 29.52318 -98.47306 797 ft 3 kts 86°
2026-04-26 18:26 29.52330 -98.47246 797 ft 12 kts 51°
2026-04-26 18:26 29.52410 -98.47163 796 ft 16 kts 41°
2026-04-26 18:26 29.52499 -98.47073 793 ft 16 kts 41°
2026-04-26 18:26 29.52580 -98.46993 791 ft 13 kts 41°
2026-04-26 18:27 29.52650 -98.46925 790 ft 12 kts 40°
2026-04-26 18:27 29.52719 -98.46867 788 ft 11 kts
2026-04-26 18:27 29.52778 -98.46913 788 ft 9 kts 339°
2026-04-26 18:27 29.52845 -98.46905 788 ft 13 kts 324°
2026-04-26 18:28 29.52919 -98.46999 788 ft 16 kts 310°
2026-04-26 18:28 29.52989 -98.47089 790 ft 15 kts 312°
2026-04-26 18:28 29.53073 -98.47199 792 ft 21 kts 311°
2026-04-26 18:28 29.53187 -98.47345 795 ft 25 kts 312°
2026-04-26 18:29 29.53306 -98.47498 795 ft 25 kts 311°
2026-04-26 18:29 29.53414 -98.47636 797 ft 20 kts 312°
2026-04-26 18:29 29.53499 -98.47746 800 ft 16 kts 312°
2026-04-26 18:29 29.53572 -98.47842 801 ft 18 kts 311°
2026-04-26 18:30 29.53652 -98.47944 803 ft 14 kts 311°
2026-04-26 18:30 29.53707 -98.48013 804 ft 9 kts 312°
2026-04-26 18:30 29.53757 -98.48078 806 ft 13 kts 310°
2026-04-26 18:30 29.53830 -98.48173 808 ft 18 kts 310°
2026-04-26 18:31 29.53921 -98.48289 808 ft 18 kts 311°
2026-04-26 18:31 29.53991 -98.48383 809 ft 12 kts 315°
2026-04-26 18:31 29.54043 -98.48447 809 ft 9 kts 311°
2026-04-26 18:31 29.54088 -98.48505 809 ft 9 kts 311°
2026-04-26 18:32 29.54126 -98.48556 811 ft 7 kts 310°
2026-04-26 18:32 29.54160 -98.48595 812 ft 6 kts 326°
2026-04-26 18:32 29.54205 -98.48602 811 ft 7 kts 19°
2026-04-26 18:32 29.54254 -98.48551 808 ft 12 kts 83°
2026-04-26 18:33 29.54177 -98.48431 806 ft 46 kts 131°
2026-04-26 18:33 29.53743 -98.47868 801 ft 133 kts 132°
2026-04-26 18:33 29.53155 -98.47124 932 ft 161 kts 134°
2026-04-26 18:33 29.52355 -98.46149 1534 ft 173 kts 135°
2026-04-26 18:34 29.51491 -98.45171 2220 ft 179 kts 135°
2026-04-26 18:34 29.50645 -98.44088 2804 ft 187 kts 132°
2026-04-26 18:34 29.50080 -98.43340 3242 ft 188 kts 132°
2026-04-26 18:34 29.49220 -98.42202 3906 ft 190 kts 133°
2026-04-26 18:35 29.48070 -98.40637 4715 ft 195 kts 132°
2026-04-26 18:35 29.47331 -98.39345 5292 ft 201 kts 110°
2026-04-26 18:35 29.47404 -98.37734 5789 ft 213 kts 77°
2026-04-26 18:35 29.47902 -98.36081 6204 ft 226 kts 73°
2026-04-26 18:36 29.48451 -98.34354 6605 ft 237 kts 73°
2026-04-26 18:36 29.48846 -98.33137 6914 ft 243 kts 72°
2026-04-26 18:36 29.49641 -98.30703 7568 ft 249 kts 71°
2026-04-26 18:36 29.50254 -98.28835 8084 ft 253 kts 71°
2026-04-26 18:37 29.50884 -98.26923 8616 ft 255 kts 71°
2026-04-26 18:37 29.51504 -98.25041 9149 ft 256 kts 70°
2026-04-26 18:37 29.52135 -98.23128 9681 ft 257 kts 70°
2026-04-26 18:37 29.52766 -98.21212 10201 ft 258 kts 69°
2026-04-26 18:38 29.53403 -98.19278 10707 ft 259 kts 69°
2026-04-26 18:38 29.53827 -98.17991 11038 ft 259 kts 69°
2026-04-26 18:38 29.54464 -98.16056 11524 ft 260 kts 68°
2026-04-26 18:38 29.55315 -98.13470 12146 ft 261 kts 68°
2026-04-26 18:39 29.55955 -98.11526 12595 ft 262 kts 67°
2026-04-26 18:39 29.56594 -98.09582 13037 ft 262 kts 67°
2026-04-26 18:39 29.57019 -98.08290 13322 ft 263 kts 67°
2026-04-26 18:39 29.57881 -98.05665 13893 ft 263 kts 67°
2026-04-26 18:40 29.58527 -98.03697 14308 ft 264 kts 67°
2026-04-26 18:40 29.59167 -98.01745 14713 ft 264 kts 67°
2026-04-26 18:40 29.59596 -98.00438 14975 ft 264 kts 67°
2026-04-26 18:40 29.60459 -97.97805 15485 ft 265 kts 67°
2026-04-26 18:41 29.60892 -97.96483 15735 ft 265 kts 67°
2026-04-26 18:41 29.61545 -97.94489 16069 ft 268 kts 67°
2026-04-26 18:41 29.62438 -97.91766 16331 ft 278 kts 67°
2026-04-26 18:41 29.63129 -97.89654 16576 ft 283 kts 67°
2026-04-26 18:42 29.63586 -97.88256 16750 ft 286 kts 67°
2026-04-26 18:42 29.64290 -97.86104 17026 ft 289 kts 67°
2026-04-26 18:42 29.65192 -97.83186 17401 ft 293 kts 75°
2026-04-26 18:42 29.65374 -97.81626 17571 ft 295 kts 86°
2026-04-26 18:43 29.65407 -97.79285 17854 ft 296 kts 89°
2026-04-26 18:43 29.65425 -97.76107 18232 ft 298 kts 89°
2026-04-26 18:43 29.65436 -97.74519 18413 ft 299 kts 89°
2026-04-26 18:43 29.65460 -97.71333 18772 ft 301 kts 89°
2026-04-26 18:44 29.65473 -97.69719 18940 ft 302 kts 89°
2026-04-26 18:44 29.65494 -97.67303 19200 ft 303 kts 89°
2026-04-26 18:44 29.65516 -97.64883 19453 ft 304 kts 89°
2026-04-26 18:44 29.65546 -97.61635 19669 ft 310 kts 89°
2026-04-26 18:45 29.65569 -97.59153 19838 ft 314 kts 89°
2026-04-26 18:45 29.65585 -97.57465 19961 ft 316 kts 89°
2026-04-26 18:45 29.65616 -97.54100 20218 ft 319 kts 88°
2026-04-26 18:45 29.65640 -97.51526 20413 ft 321 kts 89°
2026-04-26 18:46 29.65655 -97.49821 20535 ft 322 kts 88°
2026-04-26 18:46 29.65686 -97.46401 20793 ft 323 kts 88°
2026-04-26 18:46 29.65702 -97.44677 20901 ft 325 kts 88°
2026-04-26 18:46 29.65725 -97.42050 20952 ft 331 kts 88°
2026-04-26 18:47 29.65748 -97.39405 20967 ft 338 kts 88°
2026-04-26 18:47 29.65771 -97.36640 20970 ft 345 kts 88°
2026-04-26 18:47 29.65794 -97.33869 20963 ft 351 kts 89°
2026-04-26 18:47 29.65824 -97.30098 20959 ft 357 kts 89°
2026-04-26 18:48 29.65838 -97.28210 20959 ft 359 kts 89°
2026-04-26 18:48 29.65860 -97.25313 20952 ft 363 kts 89°
2026-04-26 18:48 29.65881 -97.22429 20950 ft 365 kts 89°
2026-04-26 18:48 29.65900 -97.19493 20949 ft 367 kts 89°
2026-04-26 18:49 29.65919 -97.16565 20951 ft 369 kts 89°
2026-04-26 18:49 29.65937 -97.13600 20949 ft 371 kts 89°
2026-04-26 18:49 29.65955 -97.10632 20945 ft 373 kts 89°
2026-04-26 18:49 29.65972 -97.07651 20941 ft 374 kts 89°
2026-04-26 18:50 29.65990 -97.04673 20946 ft 375 kts 89°
2026-04-26 18:50 29.65798 -97.00682 20917 ft 376 kts 104°
2026-04-26 18:50 29.65254 -96.98831 20974 ft 373 kts 113°
2026-04-26 18:50 29.64261 -96.96060 20953 ft 374 kts 114°
2026-04-26 18:51 29.63261 -96.93307 20941 ft 375 kts 114°
2026-04-26 18:51 29.62246 -96.90514 20942 ft 376 kts 114°
2026-04-26 18:51 29.61235 -96.87733 20944 ft 377 kts 114°
2026-04-26 18:51 29.59892 -96.84029 20945 ft 377 kts 114°
2026-04-26 18:52 29.59217 -96.82166 20944 ft 377 kts 114°
2026-04-26 18:52 29.58219 -96.79414 20943 ft 377 kts 114°
2026-04-26 18:52 29.57210 -96.76630 20945 ft 378 kts 114°
2026-04-26 18:52 29.56194 -96.73825 20944 ft 378 kts 114°
2026-04-26 18:53 29.55197 -96.71075 20945 ft 378 kts 114°
2026-04-26 18:53 29.54177 -96.68268 20943 ft 378 kts 114°
2026-04-26 18:53 29.53171 -96.65494 20946 ft 378 kts 114°
2026-04-26 18:53 29.52160 -96.62711 20947 ft 378 kts 114°
2026-04-26 18:54 29.51144 -96.59915 20952 ft 378 kts 114°
2026-04-26 18:54 29.50135 -96.57141 20951 ft 378 kts 114°
2026-04-26 18:54 29.49122 -96.54359 20752 ft 381 kts 114°
2026-04-26 18:54 29.48104 -96.51555 20502 ft 378 kts 114°
2026-04-26 18:55 29.47092 -96.48774 20252 ft 376 kts 113°
2026-04-26 18:55 29.46100 -96.46046 19998 ft 374 kts 113°
2026-04-26 18:55 29.45099 -96.43301 19756 ft 372 kts 113°
2026-04-26 18:55 29.44099 -96.40562 19506 ft 370 kts 113°
2026-04-26 18:56 29.43119 -96.37882 19260 ft 368 kts 113°
2026-04-26 18:56 29.42130 -96.35176 19007 ft 366 kts 113°
2026-04-26 18:56 29.41143 -96.32479 18752 ft 365 kts 114°
2026-04-26 18:56 29.40162 -96.29800 18462 ft 364 kts 114°
2026-04-26 18:57 29.39187 -96.27142 18163 ft 364 kts 113°
2026-04-26 18:57 29.38534 -96.25359 17964 ft 363 kts 113°
2026-04-26 18:57 29.37226 -96.21797 17588 ft 362 kts 113°
2026-04-26 18:57 29.35934 -96.18282 17203 ft 361 kts 113°
2026-04-26 18:58 29.35283 -96.16512 17002 ft 360 kts 113°
2026-04-26 18:58 29.34315 -96.13879 16719 ft 359 kts 113°
2026-04-26 18:58 29.33618 -96.11154 16404 ft 357 kts 95°
2026-04-26 18:58 29.33945 -96.08382 16094 ft 349 kts 67°
2026-04-26 18:59 29.35219 -96.06091 15798 ft 338 kts 46°
2026-04-26 18:59 29.36794 -96.04102 15510 ft 334 kts 43°
2026-04-26 18:59 29.38369 -96.02182 15211 ft 329 kts 43°
2026-04-26 18:59 29.40436 -95.99702 14810 ft 320 kts 43°
2026-04-26 19:00 29.41982 -95.97863 14519 ft 314 kts 43°
2026-04-26 19:00 29.43479 -95.96089 14234 ft 310 kts 43°
2026-04-26 19:00 29.44462 -95.94928 14034 ft 307 kts 43°
2026-04-26 19:00 29.45944 -95.93182 13740 ft 303 kts 43°
2026-04-26 19:01 29.47408 -95.91460 13451 ft 300 kts 43°
2026-04-26 19:01 29.48865 -95.89748 13160 ft 297 kts 43°
2026-04-26 19:01 29.50292 -95.88072 12869 ft 294 kts 43°
2026-04-26 19:01 29.52201 -95.85831 12485 ft 292 kts 43°
2026-04-26 19:02 29.53148 -95.84721 12277 ft 291 kts 43°
2026-04-26 19:02 29.54526 -95.83042 11947 ft 292 kts 49°
2026-04-26 19:02 29.55426 -95.80959 11604 ft 295 kts 75°
2026-04-26 19:02 29.55583 -95.79382 11385 ft 295 kts 88°
2026-04-26 19:03 29.55478 -95.76266 10930 ft 295 kts 92°
2026-04-26 19:03 29.55371 -95.73914 10590 ft 297 kts 92°
2026-04-26 19:03 29.55264 -95.71532 10235 ft 298 kts 92°
2026-04-26 19:03 29.55166 -95.69173 9882 ft 299 kts 92°
2026-04-26 19:04 29.54921 -95.66803 9522 ft 298 kts 101°
2026-04-26 19:04 29.54489 -95.64487 9168 ft 295 kts 103°
2026-04-26 19:04 29.54059 -95.62210 8816 ft 293 kts 103°
2026-04-26 19:04 29.53632 -95.59940 8460 ft 291 kts 103°
2026-04-26 19:05 29.52803 -95.55438 7748 ft 284 kts 103°
2026-04-26 19:05 29.52409 -95.53257 7393 ft 276 kts 103°
2026-04-26 19:05 29.51896 -95.50405 6934 ft 267 kts 103°
2026-04-26 19:06 29.51650 -95.49036 6707 ft 263 kts 103°
2026-04-26 19:06 29.51282 -95.47002 6368 ft 257 kts 103°
2026-04-26 19:06 29.50927 -95.45032 6032 ft 253 kts 103°
2026-04-26 19:06 29.50576 -95.43079 5720 ft 247 kts 104°
2026-04-26 19:07 29.50232 -95.41168 5468 ft 239 kts 104°
2026-04-26 19:07 29.49905 -95.39344 5224 ft 233 kts 104°
2026-04-26 19:07 29.49577 -95.37524 5068 ft 227 kts 104°
2026-04-26 19:07 29.49265 -95.35790 5012 ft 217 kts 104°
2026-04-26 19:08 29.48958 -95.34089 5007 ft 220 kts 105°
2026-04-26 19:08 29.48639 -95.32357 5004 ft 228 kts 105°
2026-04-26 19:08 29.48306 -95.30540 5002 ft 235 kts 104°
2026-04-26 19:08 29.47966 -95.28680 5001 ft 241 kts 104°
2026-04-26 19:09 29.47616 -95.26762 5000 ft 247 kts 104°
2026-04-26 19:09 29.47265 -95.24830 5000 ft 251 kts 104°
2026-04-26 19:09 29.46908 -95.22852 4999 ft 254 kts 104°
2026-04-26 19:09 29.46547 -95.20856 5000 ft 256 kts 104°
2026-04-26 19:10 29.46188 -95.18864 4976 ft 259 kts 104°
2026-04-26 19:10 29.45827 -95.16850 4777 ft 255 kts 104°
2026-04-26 19:10 29.45472 -95.14867 4468 ft 253 kts 104°
2026-04-26 19:10 29.45119 -95.12914 4117 ft 253 kts 104°
2026-04-26 19:11 29.44765 -95.10950 3743 ft 247 kts 104°
2026-04-26 19:11 29.44427 -95.09065 3375 ft 239 kts 104°
2026-04-26 19:11 29.44097 -95.07233 3016 ft 231 kts 104°
2026-04-26 19:11 29.43776 -95.05447 2650 ft 225 kts 104°
2026-04-26 19:12 29.43474 -95.03728 2329 ft 216 kts 104°
2026-04-26 19:12 29.43047 -95.02129 2118 ft 205 kts 120°
2026-04-26 19:12 29.42158 -95.00854 2052 ft 205 kts 137°
2026-04-26 19:12 29.41054 -94.99830 2026 ft 204 kts 143°
2026-04-26 19:13 29.39912 -94.98858 2011 ft 203 kts 143°
2026-04-26 19:13 29.38803 -94.97864 2006 ft 201 kts 141°
2026-04-26 19:13 29.37718 -94.96841 2003 ft 200 kts 141°
2026-04-26 19:13 29.36649 -94.95821 2002 ft 199 kts 141°
2026-04-26 19:14 29.35587 -94.94807 2003 ft 197 kts 140°
2026-04-26 19:14 29.34551 -94.93816 1856 ft 194 kts 140°
2026-04-26 19:14 29.33546 -94.92846 1559 ft 176 kts 140°
2026-04-26 19:14 29.32950 -94.92272 1408 ft 159 kts 140°
2026-04-26 19:15 29.31933 -94.91305 1195 ft 127 kts 140°
2026-04-26 19:15 29.31255 -94.90667 1051 ft 125 kts 141°
2026-04-26 19:15 29.30584 -94.90033 891 ft 126 kts 140°
2026-04-26 19:15 29.29913 -94.89394 712 ft 123 kts 140°
2026-04-26 19:16 29.29264 -94.88771 559 ft 121 kts 139°
2026-04-26 19:16 29.28617 -94.88153 402 ft 119 kts 139°
2026-04-26 19:16 29.27988 -94.87543 255 ft 118 kts 139°
2026-04-26 19:16 29.27355 -94.86942 102 ft 120 kts 139°
2026-04-26 19:17 29.26734 -94.86350 10 ft 103 kts 139°
2026-04-26 19:17 29.26387 -94.86017 13 ft 29 kts 139°
2026-04-26 19:17 29.26370 -94.85891 13 ft 14 kts 86°
2026-04-26 19:17 29.26376 -94.85798 13 ft 9 kts 63°
2026-04-26 19:18 29.26427 -94.85761 13 ft 7 kts 21°
2026-04-26 19:18 29.26468 -94.85752 13 ft 7 kts
2026-04-26 19:18 29.26551 -94.85750 13 ft 15 kts
2026-04-26 19:18 29.26645 -94.85748 13 ft 11 kts
2026-04-26 19:19 29.26711 -94.85747 12 ft 8 kts
2026-04-26 19:19 29.26763 -94.85747 11 ft 7 kts
2026-04-26 19:19 29.26829 -94.85745 11 ft 9 kts
2026-04-26 19:19 29.26881 -94.85682 12 ft 10 kts 90°
2026-04-26 19:20 29.26881 -94.85635 12 ft 7 kts 90°
2026-04-26 19:20 29.26872 -94.85608 12 ft 4 kts 131°
2026-04-26 19:20 29.26836 -94.85592 13 ft 2 kts 179°
2026-04-26 19:20 29.26825 -94.85592 13 ft 0 kts 180°